Theta_e
348 348 349 348 348 350 350 351 348 341 342 345 347 350 354 353 351 348 349 349 348 347 350 352 351 346 349 350 351 353 354 349 351 354 349 347 341 340 343 342 346 344 343
349 348 348 349 348 349 350 350 347 343 342 346 351 352 355 353 352 349 347 347 347 346 349 350 351 347 351 350 350 349 346 348 347 350 351 347 344 342 343 346 345 346 343
350 350 349 349 348 349 350 349 347 346 343 344 349 349 352 352 351 350 349 347 346 347 349 350 350 350 350 352 351 350 350 348 348 348 350 348 345 343 345 347 346 344 341
349 349 349 349 348 348 349 349 346 347 347 344 349 353 351 351 352 353 352 347 346 346 348 350 350 351 351 351 351 350 350 351 349 351 348 349 347 345 345 344 344 342 338
349 348 347 348 348 348 349 349 349 347 347 347 346 352 352 351 352 352 350 347 346 346 347 350 350 350 353 353 353 354 352 350 350 349 348 349 347 346 346 346 343 344 332
350 348 346 346 347 348 348 349 350 347 346 347 346 346 350 351 351 350 349 350 350 350 347 349 349 349 349 355 356 354 353 351 351 350 347 345 345 347 344 345 346 345 331
351 350 349 346 347 347 347 348 349 350 348 348 348 347 347 350 351 350 349 347 348 349 349 348 348 352 354 354 350 353 353 351 354 351 349 350 343 343 343 344 345 345 339
351 350 349 347 347 346 347 348 349 350 349 349 347 345 345 350 350 349 348 348 346 346 345 340 344 347 347 348 350 359 356 352 355 354 349 348 345 335 339 345 345 344 342
350 350 349 347 347 347 347 348 348 349 348 348 346 346 345 347 349 346 346 349 346 348 344 342 342 345 348 353 357 359 358 357 355 351 344 342 337 338 344 343 343 343 341
348 349 349 348 347 347 347 348 348 350 348 349 349 348 346 345 346 347 347 348 346 346 345 346 352 353 355 358 359 355 357 357 354 348 343 337 338 344 341 340 342 340 338
346 347 348 346 346 346 346 347 348 349 350 350 350 350 350 348 347 348 347 347 347 347 346 351 353 352 353 352 355 358 359 356 353 344 338 339 343 335 330 327 325 325 326
343 345 347 346 345 346 346 346 348 349 350 350 349 348 348 349 349 347 347 346 346 347 347 350 348 350 354 356 360 362 358 354 351 345 342 342 334 329 325 320 319 319 318
344 345 346 347 345 346 346 347 348 349 350 350 352 351 351 351 349 346 346 346 346 346 348 350 351 355 359 361 362 361 359 353 348 344 343 341 331 324 319 316 315 315 316
348 348 351 351 348 348 348 347 347 348 350 351 352 352 352 350 349 347 347 347 346 348 349 352 356 359 360 362 363 361 355 347 340 344 344 333 325 318 317 316 317 318 317
348 351 352 353 350 349 349 348 348 349 349 350 351 352 352 352 353 353 351 349 350 351 353 357 358 360 362 365 363 358 351 342 342 338 330 320 313 308 314 316 318 318 316
347 347 350 350 353 350 350 349 349 350 350 350 350 352 352 353 353 353 353 353 354 353 354 358 360 362 365 365 364 356 349 341 336 327 319 312 308 311 312 313 314 318 318
344 347 349 354 352 350 349 350 350 350 350 350 351 352 353 353 354 353 354 353 354 353 355 360 362 365 365 366 362 354 343 340 330 323 318 315 314 315 315 313 314 314 314
360 357 346 346 349 349 349 349 349 350 351 352 352 353 353 354 354 355 355 356 355 358 360 363 364 364 365 363 357 349 342 337 327 321 319 316 317 316 317 318 318 317 317
357 359 357 345 347 350 351 350 350 351 352 352 353 354 354 355 356 356 357 358 359 361 362 364 363 364 361 358 353 344 338 328 323 319 316 315 314 313 314 319 318 317 317
352 355 352 343 346 351 351 350 351 351 353 353 354 354 355 356 356 356 358 359 360 362 362 364 360 364 359 354 349 343 330 326 323 320 316 314 313 313 315 318 317 317 318
349 352 350 348 350 352 352 352 353 353 353 354 354 355 355 351 353 357 360 361 362 363 364 360 361 359 357 352 346 343 333 326 325 323 321 318 314 314 314 312 315 314 315
346 350 355 353 348 351 352 353 354 355 355 356 356 356 357 357 358 357 360 362 362 361 358 357 353 351 351 349 344 342 336 331 326 323 319 317 314 314 312 312 311 311 314
344 347 352 354 352 350 351 353 354 352 352 355 357 357 358 358 359 360 361 361 360 357 354 351 345 339 346 342 342 343 336 331 325 318 313 313 314 312 312 311 311 312 314
336 343 348 352 353 354 356 354 352 347 348 353 354 354 355 357 359 358 360 358 359 356 351 350 346 338 336 339 339 336 330 326 319 310 312 312 314 316 313 311 313 313 312
331 338 343 348 352 352 353 359 361 355 354 355 356 355 355 354 359 359 359 358 358 356 355 353 348 340 334 343 346 337 324 318 313 313 314 316 317 315 315 314 314 313 311
330 334 334 335 340 348 349 355 362 362 362 362 363 362 362 361 360 356 355 357 358 356 356 355 353 345 347 351 347 340 336 327 311 314 316 317 316 316 315 314 314 313 311
Wind_Speed
21 22 23 22 21 20 20 20 22 24 22 17 12 10 9 8 6 6 5 5 7 9 12 11 10 10 8 8 10 11 14 18 17 13 15 9 9 6 10 10 9 9 9
18 21 23 23 23 24 24 23 25 25 25 19 14 11 11 10 8 8 8 8 9 10 9 10 9 9 9 12 11 8 10 12 17 10 7 4 6 7 5 5 6 8 10
20 19 24 26 24 25 26 27 30 29 27 23 17 15 13 13 11 11 11 12 11 8 8 8 11 14 17 13 13 14 14 10 12 12 5 3 4 10 6 5 6 8 10
19 18 23 26 27 28 27 30 31 31 31 27 20 20 17 16 15 13 13 16 15 13 11 9 12 16 17 16 16 16 18 15 16 8 9 9 6 3 6 6 8 8 8
20 21 25 30 31 28 27 27 29 31 31 33 28 23 22 18 15 12 17 20 17 16 13 10 11 13 13 15 17 18 15 14 17 12 10 8 6 8 6 7 9 3 5
22 21 27 26 25 26 26 25 25 32 34 33 34 32 25 22 17 17 15 16 14 13 16 13 13 15 15 14 14 14 14 16 18 16 13 11 5 5 6 5 7 4 0
21 21 21 26 28 28 27 25 26 26 30 31 31 34 33 26 23 22 19 18 16 15 15 14 14 14 13 13 18 18 18 20 18 13 10 5 5 8 7 8 7 3 3
22 22 24 29 29 31 30 28 27 28 29 29 34 36 33 24 23 23 21 19 17 18 16 20 18 17 17 19 19 13 15 20 16 7 6 4 5 10 10 8 5 3 2
23 25 25 31 31 30 32 32 30 30 32 34 38 36 35 31 25 26 24 21 22 17 18 18 20 17 16 16 14 14 17 13 11 7 11 7 8 10 8 6 6 6 5
21 22 21 29 33 34 34 32 31 31 34 33 34 35 36 35 32 26 26 24 25 23 22 20 14 15 15 14 15 17 13 7 8 7 9 5 7 4 1 1 0 3 5
20 21 22 30 34 30 30 33 32 30 28 28 29 29 30 32 30 27 27 26 25 22 23 17 16 18 17 17 15 10 7 7 6 7 8 4 2 3 5 4 5 6 5
18 19 20 25 27 30 30 32 32 31 32 32 32 33 32 29 26 28 28 26 25 21 21 16 17 17 15 13 9 8 7 4 2 4 4 4 6 7 6 8 11 11 9
15 17 17 18 26 29 30 30 31 33 30 27 26 26 26 25 29 30 29 27 25 22 18 15 14 13 11 8 6 6 4 2 4 6 7 7 7 7 9 11 12 11 11
12 15 14 15 22 27 28 29 30 29 28 27 26 26 26 28 27 26 25 23 22 19 17 14 12 11 8 6 4 4 3 7 10 10 9 10 9 9 12 13 12 11 11
13 15 16 15 19 23 26 26 27 27 28 28 26 27 26 25 21 20 20 18 17 15 14 12 10 8 6 4 5 5 9 12 12 13 13 12 12 13 14 12 11 11 11
12 14 15 16 16 23 26 27 27 28 29 28 29 25 22 21 22 21 19 18 15 14 13 11 8 6 5 6 4 10 14 14 16 17 16 16 15 18 17 16 14 13 12
7 11 15 16 22 27 28 28 28 27 29 28 24 23 22 21 21 21 18 18 16 14 12 10 7 6 6 5 9 13 17 17 16 17 15 14 15 15 14 13 12 13 12
7 4 8 14 19 23 25 25 26 28 27 24 23 22 21 20 18 18 18 15 15 13 11 10 8 8 7 10 13 16 18 18 17 15 13 14 14 12 11 9 9 9 8
11 9 9 12 18 22 24 27 26 26 25 25 24 23 21 19 18 17 16 15 13 11 11 9 10 11 16 14 17 20 20 19 18 15 13 13 14 12 9 8 8 8 8
15 16 10 5 16 20 23 27 25 25 25 24 23 21 20 19 19 18 16 15 13 11 11 10 11 14 20 18 19 20 20 19 17 14 13 11 13 13 9 8 7 9 6
18 19 9 3 7 14 19 19 22 24 25 22 21 20 21 23 20 16 14 13 12 12 13 14 14 19 20 22 21 19 20 17 16 14 12 11 13 13 9 9 7 8 7
19 19 12 9 6 9 15 16 20 18 20 20 20 19 19 17 16 17 14 13 15 16 18 19 19 19 23 22 21 18 17 18 17 15 13 15 16 13 10 10 10 10 9
17 17 14 10 11 6 8 12 12 14 17 18 18 18 17 16 14 16 16 15 17 16 20 21 19 18 23 25 22 18 17 16 15 15 17 19 16 13 12 12 10 10 7
17 16 14 14 15 9 7 3 9 14 17 17 16 16 16 16 15 15 16 17 18 18 19 18 18 17 22 27 25 22 20 17 17 20 21 18 14 14 15 14 8 7 7
19 17 16 17 15 11 13 7 3 11 15 14 14 14 13 16 15 14 16 16 18 23 27 23 24 25 23 32 31 28 23 21 21 23 19 15 15 15 13 11 9 8 8
20 21 23 22 20 16 19 15 9 7 12 14 13 12 12 14 13 17 14 17 15 21 24 23 26 23 24 33 34 31 26 25 27 20 18 17 16 15 14 14 12 8 8
Wind_Direction
194 196 199 198 196 195 190 190 190 192 191 194 201 210 212 206 213 213 215 246 281 299 271 266 288 300 296 304 332 329 337 333 330 324 330 320 326 349 329 314 334 336 330
191 197 200 201 198 196 198 197 198 199 198 200 204 203 202 210 217 224 235 256 277 294 279 277 290 293 291 303 314 316 303 336 323 306 307 314 313 314 346 341 343 345 338
198 196 202 204 203 202 200 202 202 205 207 205 208 212 218 224 229 233 240 251 267 287 295 296 296 300 295 295 300 307 311 317 303 296 276 296 295 323 310 339 344 355 4
208 204 205 206 207 208 205 206 207 207 212 212 208 210 218 221 226 228 238 252 262 273 286 294 308 309 291 292 303 300 304 303 307 297 272 254 261 288 306 320 339 356 27
207 206 209 208 208 210 209 207 208 211 212 216 214 216 225 233 235 237 246 248 255 262 266 293 308 316 313 312 314 306 293 302 298 277 268 238 243 263 268 306 334 334 40
212 209 210 209 212 212 210 206 206 213 216 217 219 221 223 229 234 237 242 244 249 255 259 272 291 303 315 319 320 320 313 316 307 288 266 265 227 265 270 277 292 290 77
209 207 205 204 204 206 208 206 204 204 214 215 217 223 230 233 239 239 243 244 248 253 258 266 281 292 304 310 315 313 314 321 324 311 282 253 268 285 284 286 285 290 195
212 212 207 205 204 205 205 204 204 203 210 212 219 226 231 231 238 243 242 248 249 255 261 271 277 282 288 296 304 301 311 326 319 295 263 278 275 305 290 265 297 290 244
209 209 210 206 204 204 205 204 206 205 209 213 221 224 229 231 232 239 247 252 256 258 269 271 275 284 291 294 291 300 316 311 300 266 259 251 284 301 298 287 276 331 323
206 209 206 203 204 206 206 205 208 207 210 215 216 222 226 231 236 240 247 250 258 263 267 273 280 282 283 286 290 304 308 297 286 245 207 241 287 287 302 192 325 1 342
207 206 203 203 204 205 204 206 207 209 211 211 214 216 222 227 232 238 246 252 259 263 269 274 278 280 282 288 293 306 300 282 271 230 206 287 246 107 98 67 44 39 36
205 203 203 198 197 200 203 203 204 204 209 212 210 216 222 226 227 234 243 251 258 264 271 272 278 281 289 297 303 309 296 278 225 175 186 147 115 107 80 65 65 70 69
196 190 192 194 194 196 198 199 200 205 208 206 209 212 215 220 228 235 241 248 256 263 267 271 275 283 292 299 308 294 298 154 131 131 131 125 120 102 85 83 85 81 75
187 181 182 190 193 190 191 195 202 204 202 204 207 209 213 222 226 232 236 241 251 257 265 269 274 279 289 294 291 283 157 126 111 115 116 118 114 108 99 97 97 90 74
187 183 183 185 189 188 190 194 198 195 194 197 205 211 215 220 221 222 229 234 240 248 257 263 268 271 275 271 255 191 150 131 119 113 108 109 111 104 106 102 96 78 59
206 196 191 188 188 189 191 189 188 190 190 196 206 210 209 212 216 220 220 225 229 238 245 252 252 252 258 261 220 163 149 135 128 117 113 111 110 108 106 98 91 79 60
244 212 203 198 189 189 186 188 186 185 189 195 203 204 204 208 214 216 213 221 222 227 233 235 229 229 234 189 156 158 144 135 128 126 123 120 120 114 110 100 82 71 59
350 327 241 222 213 195 185 180 181 184 191 195 199 199 200 204 209 208 211 214 219 217 215 215 207 194 191 161 155 155 144 132 128 130 129 129 128 126 120 108 86 73 64
336 322 296 236 197 198 179 171 177 186 188 192 196 195 196 196 199 204 206 205 209 204 204 200 189 194 165 159 160 161 146 135 132 133 131 131 131 130 120 105 92 80 76
347 342 332 203 196 186 182 171 178 182 189 191 192 191 190 191 198 202 200 201 201 199 188 185 186 186 165 165 168 168 147 140 137 135 139 141 137 133 126 107 98 87 84
4 358 15 92 177 172 179 185 176 185 189 187 182 185 190 196 200 194 191 191 186 184 180 179 178 174 172 168 177 180 158 151 145 145 149 155 149 140 129 114 96 90 97
12 11 18 48 83 153 173 180 194 189 180 177 175 181 188 188 189 191 187 182 181 180 179 172 163 168 171 173 178 182 180 165 152 151 153 155 155 145 134 122 100 85 90
11 15 23 52 64 99 184 190 189 178 176 172 174 178 182 185 186 184 178 178 180 177 172 168 161 161 169 175 180 186 184 173 156 151 155 155 155 148 142 130 108 86 87
8 9 10 43 41 47 79 175 182 177 183 179 178 179 180 183 185 186 184 183 181 179 174 169 163 164 169 176 179 180 181 173 164 151 150 154 157 152 147 136 115 97 98
14 14 16 34 35 30 60 57 104 180 176 174 172 171 178 180 182 185 192 196 201 195 183 182 176 171 176 184 181 178 174 169 165 155 150 148 148 147 145 141 131 116 108
24 23 26 27 26 28 26 37 58 160 158 152 154 159 165 174 180 183 183 192 198 205 198 192 186 189 198 183 182 183 186 183 173 157 162 164 165 166 160 153 143 137 118